Location: Kerentrech
(47.7567°N, 3.3595°W)
Time: 17:34:22
(UTC+00:00)

USA 215 - Pass Details

Date: 17 February 2020
Orbit: 1098 x 1110 km, 123.0° (Epoch: 08 March)

Event Time Altitude Azimuth Distance (km) Brightness Sun altitude
Rises 06:38:23 0° 85° (E) 3,914 8.0 -7.2°
Reaches altitude 10° 06:40:59 10° 79° (E) 2,958 6.9 -6.7°
Maximum altitude 06:47:03 43° 11° (N) 1,506 4.0 -5.7°
Drops below altitude 10° 06:53:08 10° 303° (WNW) 2,968 4.9 -4.7°
Enters shadow 06:54:42 - 299° (WNW) 3,537 5.3 -4.5°
